Parkersburg, WV

9:55 AM EDT on October 21, 2019 (GMT -0400)
Wood County Wilson

Weather History for KPKB - August, 2019

Change the Weather History Date:

Saturday, August 3, 2019

  Actual Average Record
Temperature  
Mean Temperature 76 °F 74 °F  
Max Temperature 89 °F 85 °F 99 °F (1930)
Min Temperature 62 °F 64 °F 53 °F (1965)
Degree Days  
Heating Degree Days 0 0  
Month to date heating degree days 0 0  
Since 1 June heating degree days 16 20  
Since 1 July heating degree days 0 1  
Cooling Degree Days 11 9  
Month to date cooling degree days 34 27  
Year to date cooling degree days 731 594  
Since 1 June cooling degree days 586 510  
Growing Degree Days 24 (Base 50)    
Moisture  
Dew Point 64 °F    
Average Humidity 72    
Maximum Humidity 100    
Minimum Humidity 43    
Precipitation  
Precipitation 0.00 in 0.11 in 1.81 in (1958)
Month to date precipitation 0.01 0.36  
Year to date precipitation 29.45 25.54  
Sea Level Pressure  
Sea Level Pressure 30.06 in    
Wind  
Wind Speed 2 mph (NW)    
Max Wind Speed 9 mph    
Max Gust Speed 12 mph    
Visibility 5 miles    
Events Fog    
T = Trace of Precipitation, MM = Missing Value Source: NWS Daily Summary

Daily Weather History Graph

Daily Weather History Graph

Search for Another Location

Airport or City:

Astronomy

Aug. 03, 2019 Rise Set
Actual Time 6:27 AM EDT 8:36 PM EDT
Civil Twilight 5:57 AM EDT 9:05 PM EDT
Nautical Twilight 5:20 AM EDT 9:42 PM EDT
Astronomical Twilight 4:41 AM EDT 10:21 PM EDT
Moon 9:17 AM EDT (8/3) 10:41 PM EDT (8/3)
Length of Visible Light 15h 08m
Length of Day
14h 08m
Waxing Crescent, 10% of the Moon is Illuminated
Aug 3
Waxing Crescent
Aug 7
First Quarter
Aug 15
Full
Aug 23
Last Quarter
Aug 30
New

Hourly Weather History & Observations

Time (EDT) Temp. Heat Index Dew Point Humidity Pressure Visibility Wind Dir Wind Speed Gust Speed Precip Events Conditions
12:53 AM 68.0 °F - 66.0 °F 93% 30.06 in 8.0 mi Calm Calm - N/A   Clear
1:53 AM 66.9 °F - 64.9 °F 93% 30.07 in 8.0 mi SE 3.5 mph - N/A   Clear
2:53 AM 66.0 °F - 64.0 °F 93% 30.06 in 5.0 mi Calm Calm - N/A   Clear
3:53 AM 64.9 °F - 63.0 °F 93% 30.06 in 2.0 mi Calm Calm - N/A   Clear
4:05 AM 64.0 °F - 63.0 °F 96% 30.08 in 5.0 mi ESE 3.5 mph - N/A   Partly Cloudy
4:13 AM 64.9 °F - 64.0 °F 97% 30.08 in 1.8 mi Calm Calm - N/A   Mostly Cloudy
4:24 AM 64.0 °F - 63.0 °F 96% 30.08 in 0.5 mi Calm Calm - N/A Fog Fog
4:53 AM 64.0 °F - 63.0 °F 96% 30.06 in 0.5 mi Calm Calm - N/A Fog Fog
5:07 AM 64.0 °F - 63.0 °F 96% 30.08 in 1.5 mi Calm Calm - N/A   Scattered Clouds
5:09 AM 64.0 °F - 63.0 °F 96% 30.08 in 3.0 mi Calm Calm - N/A   Scattered Clouds
5:12 AM 64.0 °F - 62.1 °F 93% 30.08 in 1.5 mi Calm Calm - N/A   Mostly Cloudy
5:19 AM 64.0 °F - 63.0 °F 96% 30.08 in 0.2 mi Calm Calm - N/A Fog Fog
5:33 AM 64.0 °F - 63.0 °F 96% 30.08 in 0.5 mi Calm Calm - N/A Fog Fog
5:42 AM 63.0 °F - 62.1 °F 97% 30.08 in 0.2 mi Calm Calm - N/A Fog Fog
5:48 AM 62.6 °F - 62.6 °F 100% 30.09 in 1.0 mi Calm Calm - N/A   Mist
5:51 AM 62.6 °F - 62.6 °F 100% 30.09 in 4.0 mi Calm Calm - N/A   Mostly Cloudy
5:53 AM 63.0 °F - 62.1 °F 97% 30.07 in 5.0 mi Calm Calm - N/A   Overcast
6:09 AM 63.0 °F - 62.1 °F 97% 30.09 in 1.8 mi Calm Calm - N/A   Overcast
6:20 AM 63.0 °F - 62.1 °F 97% 30.09 in 0.5 mi Calm Calm - N/A Fog Fog
6:28 AM 63.0 °F - 62.1 °F 97% 30.09 in 0.2 mi Calm Calm - N/A Fog Fog
6:53 AM 63.0 °F - 62.1 °F 97% 30.07 in 0.2 mi Calm Calm - N/A Fog Fog
7:53 AM 66.0 °F - 64.9 °F 96% 30.09 in 0.2 mi Calm Calm - N/A Fog Fog
8:53 AM 66.9 °F - 66.0 °F 97% 30.10 in 0.2 mi Calm Calm - N/A Fog Fog
9:26 AM 68.0 °F - 66.9 °F 96% 30.11 in 0.5 mi Calm Calm - N/A   Overcast
9:35 AM 69.1 °F - 68.0 °F 96% 30.10 in 0.8 mi Calm Calm - N/A   Overcast
9:53 AM 69.1 °F - 68.0 °F 96% 30.09 in 0.8 mi Calm Calm - N/A   Overcast
9:59 AM 69.1 °F - 66.9 °F 93% 30.11 in 2.0 mi Calm Calm - N/A   Overcast
10:28 AM 69.1 °F - 66.9 °F 93% 30.11 in 6.0 mi Calm Calm - N/A   Mostly Cloudy
10:53 AM 71.1 °F - 69.1 °F 93% 30.09 in 9.0 mi Calm Calm - N/A   Partly Cloudy
11:53 AM 80.1 °F 82.7 °F 68.0 °F 67% 30.08 in 10.0 mi Variable 3.5 mph - N/A   Scattered Clouds
12:53 PM 84.0 °F 84.9 °F 63.0 °F 49% 30.05 in 10.0 mi NNE 3.5 mph - N/A   Scattered Clouds
1:53 PM 86.0 °F 87.6 °F 64.9 °F 49% 30.04 in 10.0 mi WNW 4.6 mph - N/A   Scattered Clouds
2:53 PM 87.1 °F 87.8 °F 63.0 °F 44% 30.03 in 10.0 mi SW 4.6 mph - N/A   Scattered Clouds
3:53 PM 87.1 °F 87.8 °F 63.0 °F 44% 30.01 in 10.0 mi NNW 8.1 mph - N/A   Scattered Clouds
4:53 PM 87.1 °F 87.8 °F 63.0 °F 44% 30.00 in 10.0 mi NNW 6.9 mph - N/A   Scattered Clouds
5:53 PM 86.0 °F 86.8 °F 63.0 °F 46% 29.99 in 10.0 mi NW 6.9 mph - N/A   Partly Cloudy
6:53 PM 84.0 °F 84.9 °F 63.0 °F 49% 29.99 in 10.0 mi NW 9.2 mph - N/A   Partly Cloudy
7:53 PM 81.0 °F 82.5 °F 64.0 °F 56% 29.99 in 10.0 mi NNW 4.6 mph - N/A   Clear
8:53 PM 75.0 °F - 64.9 °F 71% 30.00 in 10.0 mi NW 4.6 mph - N/A   Clear
9:53 PM 71.1 °F - 66.0 °F 84% 30.02 in 10.0 mi Calm Calm - N/A   Clear
10:53 PM 69.1 °F - 66.0 °F 90% 30.03 in 10.0 mi Calm Calm - N/A   Clear
11:53 PM 68.0 °F - 64.9 °F 90% 30.04 in 10.0 mi Calm Calm - N/A   Clear